CAPE
346 946 1166 1210 907 808 687 525 375 296 273 359 366 298 366 278 102 140 208 177 143 238 229 403 515 324 194 380 439 333 136 110 130 112 62 71 1 0 0 8 35 44 52 66 91 101 112 198 322 407 496 632 699 766 887 1004 1053 1383 1523 1607 1449 1472 1471
0 2 1056 1158 968 677 649 590 583 419 276 260 197 235 219 191 16 96 240 148 307 49 6 693 382 454 502 316 238 207 122 20 31 154 52 90 12 0 0 6 52 75 80 97 160 106 112 171 303 386 472 617 671 724 826 929 965 1258 1526 1602 1555 1555 1586
73 549 1360 1314 1044 725 686 501 236 194 159 38 257 193 150 126 9 0 63 182 85 3 30 259 466 382 438 579 493 259 151 60 16 34 60 73 55 0 0 0 15 54 72 87 97 182 210 144 263 363 438 584 673 707 801 851 903 1079 1490 1661 1657 1708 1676
262 939 1274 1343 1157 904 563 416 75 9 4 16 21 112 165 22 14 22 0 21 0 11 24 206 248 415 354 283 379 431 325 192 72 54 73 55 68 2 0 0 0 20 60 91 108 158 203 221 210 317 396 505 674 750 941 909 924 987 1318 1608 1786 1768 1767
24 8 319 781 937 834 535 176 19 22 2 8 1 0 17 49 52 0 19 7 0 0 1 244 284 423 381 202 172 251 354 354 201 114 104 79 83 55 0 0 0 0 26 71 125 143 195 210 224 284 325 416 606 748 901 1081 1013 969 1196 1521 1668 1774 1846
0 0 0 45 247 422 487 235 22 13 11 1 13 11 3 15 1 21 0 0 0 106 717 592 249 460 439 136 35 119 274 332 308 212 127 98 76 89 16 0 0 0 3 41 90 160 180 197 217 254 294 364 489 671 818 1016 1038 1042 1182 1412 1572 1687 1849
0 0 101 284 404 532 499 606 804 671 30 10 0 1 0 132 109 184 90 0 0 634 828 634 332 713 433 100 28 33 172 270 290 294 248 199 92 109 223 194 139 0 0 2 52 101 189 218 238 255 317 432 527 642 778 945 1127 1162 1206 1377 1516 1591 1749
0 0 0 137 330 319 387 495 821 820 692 614 338 0 0 112 197 104 60 4 264 760 873 783 464 472 813 488 47 37 170 246 283 320 412 327 282 237 221 224 175 122 0 0 24 76 83 201 247 262 392 527 601 692 807 946 1138 1234 1267 1336 1467 1510 1623
0 0 0 75 310 518 674 737 769 922 786 664 536 231 56 112 187 26 0 5 308 769 881 790 718 665 1057 1039 854 527 398 356 392 522 523 391 396 374 311 277 256 154 54 33 49 81 109 208 249 279 498 635 691 781 877 934 1078 1248 1291 1325 1429 1469 1539
5 3 12 157 694 589 532 637 700 849 940 775 367 0 91 18 199 134 110 0 932 932 927 882 770 790 780 824 845 431 352 407 312 528 622 529 465 471 441 354 286 285 235 139 105 108 139 168 235 367 555 732 813 899 1058 996 1076 1207 1316 1313 1402 1441 1493
3 0 57 452 884 718 679 566 629 786 970 870 258 0 0 0 4 83 100 162 1069 903 984 918 853 788 800 842 748 448 504 362 390 486 676 696 595 537 488 444 381 296 260 240 204 152 192 216 270 397 556 722 821 913 1050 1108 1222 1364 1392 1417 1416 1434 1468
0 5 556 821 857 831 656 562 556 749 879 811 774 421 233 707 0 8 391 665 826 984 979 836 861 800 837 940 882 824 732 456 299 436 664 906 741 696 671 634 554 452 342 273 229 201 239 242 279 371 497 647 788 895 1034 1144 1252 1410 1481 1504 1492 1482 1491
0 0 629 822 792 672 530 623 620 706 935 788 809 901 860 620 150 11 429 799 801 984 1009 842 764 760 729 927 890 934 992 997 821 719 659 697 834 774 722 704 661 633 614 494 326 347 237 289 338 366 443 588 743 891 1025 1156 1302 1408 1498 1535 1545 1535 1533
3 10 194 673 444 618 373 595 794 776 865 948 861 859 978 935 916 920 811 810 1002 964 1020 896 762 847 1016 997 960 988 1008 920 862 855 824 769 709 870 846 797 739 704 681 651 595 450 320 320 377 409 443 564 765 909 1032 1177 1309 1411 1515 1565 1561 1570 1572
1 0 416 501 275 107 183 372 715 798 845 857 783 744 752 941 1170 932 981 1112 999 856 892 897 1063 1126 1104 1085 1130 1168 1090 1130 1060 1011 922 1026 914 1046 986 913 865 808 762 727 677 620 565 448 358 492 503 588 760 912 1020 1148 1280 1424 1514 1590 1572 1590 1643
0 0 0 1 134 225 3 38 495 699 674 792 982 830 889 996 1201 1166 1302 1218 1084 969 957 948 1044 980 964 1013 1072 1132 1102 1066 998 965 940 987 1059 1148 1101 1050 956 883 854 858 844 808 734 646 542 526 576 623 707 866 989 1058 1279 1381 1480 1576 1697 1723 1710
0 0 0 156 9 0 0 106 404 761 747 638 859 972 1000 1144 992 1026 1055 928 1175 1157 1025 982 931 951 961 1032 952 984 992 998 998 1031 964 1014 981 993 994 998 1016 983 961 946 899 864 856 823 785 684 594 634 680 735 786 946 1142 1324 1436 1461 1526 1537 1516
0 0 0 124 8 1 0 619 880 770 725 540 641 1059 1159 1081 1165 909 976 1224 1183 1184 1230 1059 965 889 1020 920 864 933 940 1035 965 1000 1070 1004 1016 966 973 965 924 964 957 955 907 829 782 748 726 698 668 659 610 519 668 781 1025 1252 1380 1399 1435 1327 1173
0 0 0 0 0 0 450 666 835 794 741 710 703 655 1147 1113 1004 1125 1130 1085 1012 1212 1006 654 574 602 803 806 924 958 1005 1062 1095 1092 1081 1035 1027 951 894 863 836 805 754 635 657 577 619 639 624 634 594 628 615 596 586 687 821 1146 1322 1336 1110 1055 1114
0 0 0 0 0 187 239 346 385 635 599 517 633 642 622 884 1151 1088 983 843 724 527 442 502 717 749 929 872 982 1001 1038 1114 1110 1106 1106 1127 1107 1062 1025 1025 894 829 801 807 754 639 511 477 508 578 684 766 731 693 680 808 861 964 938 987 879 1211 1376
7 0 0 0 0 14 64 230 217 368 524 525 447 551 492 584 842 864 710 543 626 603 600 820 798 676 756 915 993 1180 1148 1125 1122 1053 998 1062 1041 946 953 903 891 893 868 786 646 607 670 626 472 489 524 561 536 539 530 762 1034 1112 1158 958 979 1072 1038
0 0 24 0 0 0 47 13 345 388 453 404 480 359 537 552 756 807 651 478 499 568 652 835 870 812 860 1078 1044 1134 1088 1090 1100 935 919 882 816 723 694 659 767 773 737 654 621 660 715 714 696 719 646 472 544 488 441 527 727 970 994 746 626 665 1145
0 0 0 0 0 0 10 86 372 400 405 433 557 228 296 434 565 701 723 597 561 444 628 787 782 793 918 888 1010 958 905 973 1026 984 910 827 594 590 642 636 604 740 642 612 572 589 634 668 656 618 604 642 612 621 541 430 415 425 698 768 725 871 992
0 4 0 0 0 64 86 145 291 347 375 353 370 148 6 278 501 585 606 606 584 477 613 676 713 766 879 956 1081 920 823 884 924 946 890 605 370 636 554 473 496 540 506 483 616 627 544 506 526 542 526 504 444 562 593 873 728 855 969 1076 1196 1366 1368
21 4 0 0 0 0 0 0 218 324 380 216 93 50 108 386 622 606 654 822 678 686 659 593 533 494 541 874 719 700 702 694 756 819 701 546 530 509 516 437 334 348 403 455 542 611 608 537 487 418 372 282 412 301 368 408 411 570 762 884 571 876 1051
0 0 0 0 0 0 0 0 193 225 239 221 221 109 300 468 594 700 793 809 826 780 797 608 567 577 717 568 529 618 640 670 677 516 387 372 347 379 402 356 349 345 311 413 461 488 559 529 482 449 397 326 395 342 416 458 496 489 485 436 538 569 619
0 0 0 0 0 80 0 197 96 189 117 204 213 517 695 766 679 814 876 843 735 663 484 469 548 513 470 416 343 366 460 431 401 325 269 249 254 264 271 257 276 292 342 345 398 381 418 401 380 346 286 262 200 0 46 202 231 288 305 367 102 348 432
0 0 0 0 31 164 175 109 256 223 0 114 489 846 827 827 790 809 830 576 471 411 478 548 514 498 476 410 363 413 358 309 300 246 170 206 201 200 198 193 189 178 141 59 136 182 239 244 269 246 217 202 102 0 0 0 0 31 171 221 179 179 110
0 22 0 172 167 276 267 163 0 262 276 492 1015 948 969 926 816 703 576 451 416 436 440 527 488 492 488 444 373 394 354 343 315 310 211 174 184 188 143 126 10 0 0 0 0 0 0 108 120 105 36 0 0 31 0 0 0 0 0 0 0 0 18
0 181 224 299 359 453 440 323 296 376 728 1056 922 865 929 942 918 826 625 514 438 502 509 507 464 358 338 331 292 326 358 344 331 339 280 216 144 114 0 0 0 0 0 0 0 0 21 0 0 0 0 0 0 0 0 0 0 0 0 0 0 0 0
130 344 361 434 549 607 543 486 446 675 1006 1080 1042 990 898 842 865 714 545 432 468 584 579 539 497 426 342 232 231 259 278 278 254 265 288 278 232 189 2 0 0 0 0 0 0 0 0 0 0 0 0 0 0 0 0 0 0 0 0 0 0 0 0
122 242 520 610 673 695 647 638 773 946 1021 918 937 930 721 706 715 495 556 467 218 459 579 568 532 432 297 33 80 88 150 161 163 176 171 170 156 134 63 0 0 0 0 0 0 0 0 0 0 0 0 0 0 0 0 0 0 0 0 0 0 0 0
197 424 607 748 786 793 753 737 801 868 946 723 150 567 539 676 534 548 577 543 474 282 562 597 566 478 352 59 12 4 0 0 2 0 2 2 0 0 0 0 0 0 0 0 0 0 0 0 0 0 0 0 0 0 0 0 0 0 0 0 0 0 0
219 384 483 578 449 364 274 347 292 346 344 226 44 100 329 511 339 171 361 594 630 675 679 627 550 534 414 311 215 40 0 0 0 0 0 0 0 0 0 0 0 0 0 0 0 0 0 0 0 0 0 0 0 0 0 0 0 0 0 0 0 0 0
190 210 382 288 166 3 269 322 286 9 284 320 26 55 228 308 311 92 0 260 367 359 534 726 695 555 535 335 279 222 0 0 0 0 0 0 0 0 0 0 0 0 0 0 0 0 0 0 0 0 0 0 0 0 0 0 0 0 0 0 0 0 0
0 55 381 120 277 409 315 7 10 12 0 202 419 419 375 11 312 293 281 269 252 299 438 652 825 772 640 492 395 333 214 76 0 0 0 0 0 0 0 0 0 0 0 0 0 0 0 0 0 0 0 0 0 0 0 0 0 0 0 0 0 0 0
60 285 347 309 450 425 244 0 0 0 122 570 673 683 724 566 454 322 286 251 356 533 671 756 875 899 857 676 593 390 270 0 47 36 23 13 0 12 17 1 0 0 0 0 0 0 0 0 0 0 0 0 0 0 0 0 0 0 0 0 0 0 0
Wind_Speed
25 25 26 27 26 24 23 27 20 16 17 25 22 19 19 22 23 16 16 13 14 15 18 19 21 22 21 22 22 27 25 27 29 27 nan nan nan nan nan nan nan nan nan nan nan 14 15 14 14 12 11 11 9 10 10 8 8 8 7 7 7 8 8
nan nan 25 27 30 25 26 24 21 21 21 25 23 18 19 21 nan nan 19 13 15 nan nan 22 23 22 20 19 21 26 27 nan nan 23 nan nan nan nan nan nan nan nan nan nan 16 16 14 13 12 12 12 12 12 11 10 9 10 9 9 10 9 9 9
nan 27 30 28 29 32 25 20 24 32 26 nan 22 21 17 19 nan nan nan 17 nan nan nan 19 18 19 18 18 23 27 27 nan nan nan nan nan nan nan nan nan nan nan nan nan nan 15 15 14 14 13 13 14 14 13 12 11 11 11 11 13 11 12 11
22 25 28 22 26 31 29 27 nan nan nan nan nan 16 17 nan nan nan nan nan nan nan nan 15 15 18 16 16 22 25 26 23 nan nan nan nan nan nan nan nan nan nan nan nan 16 16 16 16 16 17 17 17 14 14 14 14 15 15 14 12 12 11 12
nan nan 26 26 24 25 28 28 nan nan nan nan nan nan nan nan nan nan nan nan nan nan nan 15 14 17 17 14 19 23 24 22 20 19 19 nan nan nan nan nan nan nan nan nan 17 17 17 19 19 20 19 16 15 16 15 15 15 15 15 14 14 13 15
nan nan nan nan 23 23 24 24 nan nan nan nan nan nan nan nan nan nan nan nan nan 9 11 12 13 15 16 11 nan 22 23 22 20 20 21 nan nan nan nan nan nan nan nan nan nan 19 21 23 22 21 20 20 19 17 15 16 16 16 16 17 17 17 17
nan nan 26 27 24 23 22 23 26 20 nan nan nan nan nan 19 17 18 nan nan nan 9 8 10 16 16 13 8 nan nan 23 23 22 24 25 25 nan 22 21 20 19 nan nan nan nan 17 19 19 20 21 21 20 19 17 18 18 16 15 17 18 19 19 18
nan nan nan 28 29 26 23 21 22 26 22 15 12 nan nan 17 17 17 nan nan 10 10 12 9 14 17 13 8 nan nan 25 30 28 31 34 31 31 28 24 22 21 20 nan nan nan nan nan 19 21 22 22 22 22 22 20 19 16 16 19 21 22 21 20
nan nan nan nan 26 27 27 22 23 23 21 19 14 17 nan 17 11 nan nan nan 11 11 14 10 12 15 14 9 21 26 29 35 35 35 37 37 33 30 26 24 24 24 nan nan nan nan 16 17 20 21 21 19 20 21 20 17 17 19 20 23 24 22 21
nan nan nan 30 29 27 26 27 28 29 33 32 25 nan nan nan 14 16 15 nan 6 8 16 18 13 11 12 11 14 22 17 14 22 33 38 38 34 29 26 27 27 23 21 21 22 21 20 19 21 22 21 19 18 19 18 18 17 18 19 22 23 24 24
nan nan nan 28 30 31 32 30 32 33 32 32 24 nan nan nan nan nan nan 13 12 9 15 21 16 12 11 11 13 18 18 19 21 25 29 32 32 31 31 32 32 33 30 25 24 23 23 23 23 23 23 20 18 19 21 21 19 18 19 21 23 24 25
nan nan 30 29 31 31 30 33 34 33 37 36 36 28 21 18 nan nan 15 14 10 5 12 17 18 15 12 10 12 15 18 18 19 23 27 30 29 30 33 35 35 34 33 35 32 27 27 27 27 27 25 23 21 21 22 22 21 21 22 22 22 22 22
nan nan 32 33 33 34 32 33 34 38 36 42 39 31 26 22 18 nan 16 14 12 9 11 15 18 18 16 13 12 13 15 16 15 17 21 24 24 22 25 30 37 41 39 36 36 35 33 31 30 30 31 29 27 25 26 26 25 23 24 24 22 21 20
nan nan 38 37 35 37 35 37 38 35 39 41 38 33 32 25 23 17 18 17 16 14 13 14 17 18 17 16 13 10 10 11 12 13 14 16 16 15 15 19 26 34 36 35 34 34 32 29 28 28 32 34 32 30 30 30 29 29 29 26 25 24 21
nan nan 41 42 43 42 38 36 38 39 36 38 39 36 34 29 25 24 22 20 19 17 14 15 17 17 16 17 17 17 13 11 12 14 8 7 9 10 12 13 16 21 25 28 28 28 27 26 26 25 26 31 35 36 36 34 32 33 33 31 29 26 22
nan nan nan nan 42 43 nan nan 40 42 42 40 36 35 34 29 28 26 22 21 21 17 17 17 19 19 21 21 20 19 17 15 15 15 9 5 4 5 7 10 12 14 17 19 20 22 23 25 25 24 24 26 30 33 38 39 41 40 37 35 34 33 32
nan nan nan 42 nan nan nan 40 38 37 36 36 35 34 38 35 28 27 27 26 23 21 20 22 22 22 22 23 21 20 21 18 17 16 14 8 5 4 4 4 5 6 8 11 13 18 21 23 23 25 25 26 26 30 36 44 49 48 45 40 39 37 33
nan nan nan 36 nan nan nan 39 39 38 37 36 38 38 38 39 35 29 28 27 28 30 29 28 27 25 22 21 20 19 19 20 21 21 18 17 15 14 12 11 11 12 13 13 11 11 14 16 19 21 23 27 32 36 38 41 44 46 47 46 41 39 43
nan nan nan nan nan nan 36 38 40 41 41 40 39 36 37 40 36 29 27 31 32 29 28 26 26 24 28 31 30 29 27 23 23 23 22 23 23 20 18 18 17 17 16 15 15 17 16 16 18 21 23 28 32 35 38 42 45 48 49 48 46 43 47
nan nan nan nan nan 28 31 33 39 42 44 42 40 36 33 35 36 31 30 32 31 31 29 29 31 30 26 31 32 31 32 29 26 26 24 25 27 24 19 19 20 20 19 18 17 18 17 17 18 18 19 21 27 30 35 39 43 47 46 47 46 44 47
nan nan nan nan nan nan nan 32 35 38 42 42 39 34 30 29 32 33 33 31 30 32 32 35 31 34 26 27 30 31 32 32 30 29 27 27 27 25 23 23 24 23 23 21 20 20 21 20 20 17 15 18 23 26 29 31 34 40 44 44 43 42 41
nan nan nan nan nan nan nan nan 29 35 40 43 41 39 32 32 30 32 33 31 34 34 34 34 35 33 28 27 28 28 30 31 30 29 28 28 28 27 26 27 27 27 27 26 24 24 24 23 20 17 17 20 23 23 24 23 22 24 30 33 34 33 33
nan nan nan nan nan nan nan nan 25 29 34 42 44 41 33 31 31 31 31 31 33 36 35 36 37 30 25 17 20 25 29 32 33 32 29 29 30 29 28 27 28 30 30 30 29 31 31 29 22 20 20 22 23 23 21 19 17 16 18 19 22 24 25
nan nan nan nan nan nan nan 22 27 27 32 39 42 41 nan 33 33 32 32 32 33 36 38 40 39 36 32 19 14 21 28 32 34 34 32 32 33 32 31 30 28 27 24 26 28 29 27 25 23 23 23 25 27 26 23 21 21 20 17 16 18 20 19
nan nan nan nan nan nan nan nan 24 28 30 36 nan nan 35 35 36 33 35 34 36 38 37 37 36 35 36 35 25 21 24 31 35 36 36 34 34 35 37 36 33 31 29 27 27 26 23 23 23 23 26 28 28 24 24 26 24 21 19 20 22 24 22
nan nan nan nan nan nan nan nan 27 29 32 32 32 33 38 37 36 35 35 35 35 35 35 34 32 34 39 37 31 26 25 27 30 33 33 33 32 33 35 39 37 36 36 35 34 35 32 32 30 29 31 35 34 31 30 27 21 18 20 21 22 24 25
nan nan nan nan nan nan nan 27 nan 30 32 28 31 38 41 41 40 39 37 35 32 34 35 34 37 37 35 33 31 29 28 26 24 25 27 27 27 29 32 35 36 35 34 33 34 35 33 32 31 31 35 36 35 nan nan 24 20 19 20 20 20 22 24
nan nan nan nan nan 21 23 25 24 26 nan 31 30 35 39 41 43 40 39 36 33 34 36 37 37 35 34 32 31 30 28 27 25 23 22 22 23 26 28 31 32 31 29 nan 28 30 31 32 31 31 33 35 34 nan nan nan nan nan 24 23 23 24 23
nan nan nan 16 17 19 21 22 nan 24 27 30 30 32 33 38 41 41 42 39 37 38 39 39 38 35 32 31 30 31 28 28 26 25 22 23 24 25 28 31 nan nan nan nan nan nan nan 29 29 27 nan nan nan nan nan nan nan nan nan nan nan nan nan
nan 15 15 16 19 21 21 23 24 27 31 33 33 30 31 33 36 39 41 40 41 41 40 42 39 38 36 35 34 34 33 32 31 30 30 30 30 29 nan nan nan nan nan nan nan nan nan nan nan nan nan nan nan nan nan nan nan nan nan nan nan nan nan
19 15 15 19 17 17 20 22 24 27 30 31 36 34 30 32 36 38 38 40 40 39 41 43 41 39 39 39 37 36 36 36 36 37 35 33 31 31 nan nan nan nan nan nan nan nan nan nan nan nan nan nan nan nan nan nan nan nan nan nan nan nan nan
15 13 14 15 14 15 19 22 28 30 32 33 35 35 33 33 32 33 35 39 38 32 36 40 42 40 40 nan nan nan 37 37 38 38 37 35 33 30 nan nan nan nan nan nan nan nan nan nan nan nan nan nan nan nan nan nan nan nan nan nan nan nan nan
12 12 12 12 12 18 23 25 27 28 29 30 34 36 36 43 40 35 35 36 33 29 31 37 41 41 39 nan nan nan nan nan nan nan nan nan nan nan nan nan nan nan nan nan nan nan nan nan nan nan nan nan nan nan nan nan nan nan nan nan nan nan nan
10 10 10 13 17 15 17 22 25 28 31 34 nan nan 33 38 41 42 41 41 40 35 32 33 35 35 33 33 34 nan nan nan nan nan nan nan nan nan nan nan nan nan nan nan nan nan nan nan nan nan nan nan nan nan nan nan nan nan nan nan nan nan nan
6 5 9 12 14 nan 13 16 20 nan 29 33 nan nan 26 30 32 nan nan 42 42 40 35 30 29 28 27 28 30 31 nan nan nan nan nan nan nan nan nan nan nan nan nan nan nan nan nan nan nan nan nan nan nan nan nan nan nan nan nan nan nan nan nan
nan nan 14 13 14 15 10 nan nan nan nan 25 24 25 27 nan 29 31 32 30 32 37 38 36 30 27 27 25 26 28 28 nan nan nan nan nan nan nan nan nan nan nan nan nan nan nan nan nan nan nan nan nan nan nan nan nan nan nan nan nan nan nan nan
nan 5 10 8 9 13 11 nan nan nan 19 18 22 20 17 20 26 27 25 23 25 27 32 32 31 27 26 25 25 25 25 nan nan nan nan nan nan nan nan nan nan nan nan nan nan nan nan nan nan nan nan nan nan nan nan nan nan nan nan nan nan nan nan
Wind_Direction
207 203 221 224 238 227 212 217 217 230 239 248 238 225 227 234 234 238 252 235 238 240 251 270 272 281 274 258 231 213 210 209 209 208 nan nan nan nan nan nan nan nan nan nan nan 216 214 208 203 200 198 202 207 212 215 215 211 208 203 201 211 214 220
nan nan 218 237 224 230 226 210 208 221 231 242 241 235 225 231 nan nan 254 259 245 nan nan 256 276 288 274 256 231 212 207 nan nan 208 nan nan nan nan nan nan nan nan nan nan 202 207 217 219 213 206 201 201 204 211 222 226 221 219 207 205 206 212 219
nan 201 223 225 222 224 226 224 209 225 212 nan 220 236 230 230 nan nan nan 254 nan nan nan 258 285 302 287 253 229 214 209 nan nan nan nan nan nan nan nan nan nan nan nan nan nan 206 213 217 218 216 210 209 208 208 215 227 230 226 224 212 211 209 213
198 211 218 222 209 216 225 224 nan nan nan nan nan 223 235 nan nan nan nan nan nan nan nan 285 293 311 298 262 234 211 206 211 nan nan nan nan nan nan nan nan nan nan nan nan 212 213 215 218 221 220 217 212 210 211 219 221 222 226 226 223 221 221 218
nan nan 216 216 219 219 216 221 nan nan nan nan nan nan nan nan nan nan nan nan nan nan nan 266 282 306 311 265 226 208 202 208 212 211 213 nan nan nan nan nan nan nan nan nan 213 215 216 218 220 224 224 223 214 214 216 224 231 231 231 226 222 219 223
nan nan nan nan 221 218 219 231 nan nan nan nan nan nan nan nan nan nan nan nan nan 258 250 252 259 288 309 254 nan 202 200 207 214 213 212 nan nan nan nan nan nan nan nan nan nan 221 220 223 223 224 223 222 219 216 215 223 227 229 234 230 224 221 221
nan nan 202 216 214 221 223 233 216 219 nan nan nan nan nan 217 221 241 nan nan nan 249 233 246 249 272 294 238 nan nan 203 209 216 216 217 217 nan 222 221 223 230 nan nan nan nan 239 237 236 234 232 230 229 227 223 220 222 230 231 235 236 232 227 225
nan nan nan 218 216 221 221 221 224 223 217 212 228 nan nan 228 220 228 nan nan 239 232 223 233 253 259 267 222 nan nan 205 211 217 219 220 219 215 213 216 217 222 231 nan nan nan nan nan 248 247 247 241 234 231 228 226 225 228 233 235 235 236 233 230
nan nan nan nan 212 221 226 222 219 224 225 220 222 229 nan 222 226 nan nan nan 245 235 224 232 248 258 263 244 197 202 212 208 211 220 221 216 215 217 218 218 220 225 nan nan nan nan 254 256 256 259 259 254 250 247 241 235 229 232 235 237 240 240 238
nan nan nan 210 206 207 211 224 214 223 221 213 220 nan nan nan 220 245 253 nan 246 236 236 233 234 238 259 252 210 207 195 212 216 214 212 207 209 213 218 219 222 228 232 235 239 243 245 251 257 259 261 258 252 250 254 251 246 239 237 239 240 241 239
nan nan nan 211 220 218 221 208 219 215 225 223 231 nan nan nan nan nan nan 245 242 237 235 234 233 224 244 256 225 209 189 188 197 205 203 201 207 215 218 219 216 215 218 226 233 239 241 247 249 253 258 257 252 250 250 251 253 255 252 249 247 246 242
nan nan 231 218 226 228 226 223 218 222 228 230 228 228 222 220 nan nan 207 207 229 220 223 233 238 230 223 235 232 220 207 191 192 201 199 202 208 214 218 221 220 219 218 217 219 225 238 243 245 249 252 255 254 252 254 253 255 257 255 258 257 256 254
nan nan 227 216 220 226 230 228 228 226 228 233 232 221 216 223 217 nan 188 203 209 210 212 220 228 231 226 223 225 217 219 217 202 208 211 208 204 208 217 216 215 218 221 223 226 228 228 237 247 247 246 245 245 243 243 246 248 252 257 260 262 263 262
nan nan 226 220 222 226 226 226 228 229 233 237 234 223 216 225 219 204 209 221 214 206 219 216 219 229 233 238 231 227 229 239 234 230 227 225 216 209 213 211 213 217 222 228 233 234 238 238 241 247 244 241 243 248 248 247 249 246 248 249 253 255 259
nan nan 225 227 226 225 225 225 228 228 232 238 234 229 218 207 221 217 214 216 207 202 214 220 215 228 243 248 243 235 231 238 244 251 256 252 236 224 220 217 220 223 229 236 241 244 247 248 248 246 242 239 239 241 242 245 248 249 250 251 250 253 255
nan nan nan nan 227 228 nan nan 223 225 228 233 231 230 222 212 210 208 212 209 209 211 221 225 219 220 225 233 238 238 236 241 246 261 281 298 283 252 236 229 229 234 240 245 249 249 249 249 250 249 248 244 242 243 243 243 241 243 245 247 250 245 235
nan nan nan 228 nan nan nan 224 225 229 233 234 230 230 228 222 211 210 211 210 199 219 225 227 221 222 220 225 231 233 235 233 242 251 259 265 269 262 250 239 238 253 262 255 248 242 238 241 246 246 248 251 251 249 247 243 242 239 236 240 246 246 239
nan nan nan 230 nan nan nan 229 227 233 234 238 235 229 225 225 221 218 217 216 218 230 227 222 218 216 215 218 221 229 235 237 237 240 244 243 236 230 224 225 232 237 246 250 254 266 265 261 259 254 250 249 244 240 240 239 243 244 242 237 238 242 234
nan nan nan nan nan nan 234 228 227 232 237 239 239 234 229 230 231 224 214 214 215 219 234 249 244 220 216 216 217 219 216 227 238 241 239 239 240 237 236 241 245 248 255 261 257 252 260 264 262 260 254 249 247 246 246 243 236 231 228 232 234 236 239
nan nan nan nan nan 236 231 228 230 230 232 232 232 227 229 233 237 231 225 221 225 228 233 237 247 253 229 219 219 215 215 215 224 233 235 239 242 243 239 242 240 245 250 256 260 260 260 267 267 264 267 263 254 246 243 240 235 234 235 234 231 231 237
nan nan nan nan nan nan nan 237 237 236 230 231 234 232 228 238 241 240 236 231 234 237 234 232 236 254 240 216 212 217 219 220 222 226 228 234 239 240 237 238 243 243 247 251 253 255 254 255 260 267 278 275 266 257 255 254 246 235 233 236 236 231 233
nan nan nan nan nan nan nan nan 233 231 231 230 235 235 224 234 241 244 246 239 241 238 241 237 233 249 245 204 199 217 226 228 230 228 228 232 235 235 235 237 241 242 244 244 245 251 253 252 254 262 265 270 277 277 272 266 261 245 237 232 233 232 230
nan nan nan nan nan nan nan nan 239 236 232 231 232 229 222 231 250 251 251 247 243 242 243 238 239 245 248 202 197 219 233 239 238 236 232 232 234 237 242 244 243 240 239 240 241 245 248 249 246 251 258 265 270 274 276 278 278 266 247 239 233 232 232
nan nan nan nan nan nan nan 248 238 239 236 234 226 226 nan 231 244 247 250 250 249 245 239 239 244 246 254 255 233 227 237 244 244 244 245 245 243 242 243 243 246 249 245 244 243 242 241 242 244 246 253 262 261 256 250 251 252 248 245 242 237 231 225
nan nan nan nan nan nan nan nan 242 237 237 231 nan nan 229 230 239 238 244 246 247 245 244 246 248 248 251 259 262 252 245 244 242 242 245 248 250 249 246 247 249 249 245 245 251 253 248 246 249 250 255 254 253 257 262 262 256 248 239 236 229 228 232
nan nan nan nan nan nan nan nan 248 244 239 231 230 227 229 237 240 235 240 246 246 248 249 249 251 255 259 259 259 256 249 246 243 242 244 247 248 249 252 254 254 253 256 256 257 255 251 251 250 249 250 250 250 251 251 247 243 242 241 232 231 240 247
nan nan nan nan nan nan nan 251 nan 238 237 230 229 228 227 231 237 240 235 241 244 248 247 250 254 257 259 256 254 254 258 258 255 249 245 245 247 249 252 254 256 257 257 257 255 253 251 248 247 247 248 247 247 nan nan 245 240 237 238 242 243 248 251
nan nan nan nan nan 251 245 246 246 238 nan 232 236 234 231 232 238 238 237 234 240 245 250 252 251 251 257 258 256 253 257 263 262 255 248 247 250 249 247 253 259 261 258 nan 249 248 250 250 247 245 247 246 243 nan nan nan nan nan 242 247 247 248 250
nan nan nan 258 257 255 246 247 nan 235 226 228 234 235 233 238 235 237 239 239 240 248 250 247 247 248 249 254 257 258 259 261 259 255 255 265 273 269 259 252 nan nan nan nan nan nan nan 246 243 241 nan nan nan nan nan nan nan nan nan nan nan nan nan
nan 255 267 261 255 250 240 242 239 232 226 221 223 228 235 232 240 241 244 243 244 247 247 247 240 244 248 251 253 255 257 257 254 253 259 271 278 274 nan nan nan nan nan nan nan nan nan nan nan nan nan nan nan nan nan nan nan nan nan nan nan nan nan
255 260 254 254 254 247 245 241 236 232 228 225 220 210 224 236 238 243 244 250 248 245 243 243 244 246 248 251 253 256 257 257 257 258 263 272 277 274 nan nan nan nan nan nan nan nan nan nan nan nan nan nan nan nan nan nan nan nan nan nan nan nan nan
261 264 261 259 252 246 236 234 232 227 219 214 216 211 209 221 232 237 245 249 249 241 238 240 244 248 249 nan nan nan 256 257 257 258 264 271 268 257 nan nan nan nan nan nan nan nan nan nan nan nan nan nan nan nan nan nan nan nan nan nan nan nan nan
253 251 257 265 270 249 236 232 234 228 224 219 214 204 202 214 214 219 231 241 250 246 243 244 248 250 248 nan nan nan nan nan nan nan nan nan nan nan nan nan nan nan nan nan nan nan nan nan nan nan nan nan nan nan nan nan nan nan nan nan nan nan nan
257 293 296 300 285 264 242 234 232 230 221 223 nan nan 192 210 211 206 212 224 229 234 239 245 249 252 250 247 248 nan nan nan nan nan nan nan nan nan nan nan nan nan nan nan nan nan nan nan nan nan nan nan nan nan nan nan nan nan nan nan nan nan nan
289 318 309 308 294 nan 254 243 233 nan 227 223 nan nan 196 209 215 nan nan 198 214 221 221 222 239 244 244 243 241 242 nan nan nan nan nan nan nan nan nan nan nan nan nan nan nan nan nan nan nan nan nan nan nan nan nan nan nan nan nan nan nan nan nan
nan nan 314 317 306 304 274 nan nan nan nan 206 193 190 195 nan 201 208 207 194 198 211 214 217 219 232 232 231 237 240 238 nan nan nan nan nan nan nan nan nan nan nan nan nan nan nan nan nan nan nan nan nan nan nan nan nan nan nan nan nan nan nan nan
nan 313 307 305 292 291 279 nan nan nan 227 209 192 189 189 192 191 207 211 191 176 200 213 210 206 214 228 228 231 235 233 nan nan nan nan nan nan nan nan nan nan nan nan nan nan nan nan nan nan nan nan nan nan nan nan nan nan nan nan nan nan nan nan